Flag for France Weather past 2 weeks in Boulogne-Billancourt, France

Now
52 °F

Passing clouds.


Feels Like: 50 °F
Forecast: 44 / 55 °F
Wind: 6 mph from Southwest

Location: Paris-Orly

Current Time: Oct 21, 2014 at 4:28:54 AM

Latest Report: Oct 21, 2014 at 4:00 AM


Visibility: 4 mi

Pressure: 30.01 "Hg

Humidity: 94%

Dew point: 50 °F

Location of Boulogne-BillancourtLocation

Historic Weather in Boulogne-Billancourt — Graph

°F

Boulogne-Billancourt temperature yesterday

Maximum temperature yesterday: 63 °F (at 2:30 PM)
Minimum temperature yesterday: 54 °F (at 9:30 PM)
Average temperature yesterday: 58 °F

Past Weeks' High & Low Weather Summary

 TemperatureHumidityPressure
High75 °F (Oct 18, 3:00 PM)100% (Oct 6, 4:00 AM)30.15 "Hg (Oct 6, 4:00 AM)
Low43 °F (Oct 6, 3:00 AM)49% (Oct 9, 3:30 PM)29.56 "Hg (Oct 7, 4:00 AM)
Average58 °F84%29.84 "Hg
* Reported Oct 6 3:00 AM — Oct 21 3:30 AM, Boulogne-Billancourt, Weather by CustomWeather, © 2014

Note: Actual official high and low records may vary slightly from our data, if they occured in-between our weather recording intervals... More about our weather records

Advertising

Boulogne-Billancourt weather history for previous 24 hours

 ConditionsComfort  
Time TempWeatherWind HumidityBarometerVisibility
3:30 AM
Oct 21
52 °FPassing clouds.3 mph94%30.01 "Hg4 mi
3:00 AM52 °FPassing clouds.5 mph100%30.04 "Hg5 mi
2:30 AM52 °FPassing clouds.3 mph94%30.04 "Hg5 mi
2:00 AM52 °FPassing clouds.7 mph94%30.04 "HgN/A
1:30 AM52 °FPassing clouds.6 mph94%30.04 "HgN/A
1:00 AM52 °FPassing clouds.7 mph94%30.04 "HgN/A
12:30 AM54 °FPassing clouds.9 mph94%30.07 "HgN/A
12:00 AM54 °FPassing clouds.10 mph94%30.07 "HgN/A
11:30 PM
Oct 20
54 °FPassing clouds.5 mph94%30.07 "HgN/A
11:00 PM54 °FClear.6 mph94%30.07 "Hg10 mi
10:30 PM54 °FClear.7 mph94%30.07 "Hg10 mi
10:00 PM54 °FFog.6 mph94%30.07 "HgN/A
9:30 PM54 °FClear.6 mph94%30.07 "Hg10 mi
9:00 PM55 °FClear.7 mph94%30.07 "Hg10 mi
8:30 PM55 °FClear.6 mph94%30.07 "Hg10 mi
8:00 PM55 °FPassing clouds.6 mph94%30.07 "HgN/A
7:30 PM57 °FSunny.3 mph94%30.07 "Hg10 mi
7:00 PM57 °FSunny.5 mph88%30.07 "Hg10 mi
6:30 PM59 °FSunny.3 mph88%30.07 "Hg10 mi
6:00 PM59 °FPartly sunny.5 mph88%30.07 "HgN/A
5:30 PM59 °FLight rain. Broken clouds.3 mph88%30.07 "HgN/A
5:00 PM61 °FLight rain. Broken clouds.5 mph83%30.09 "HgN/A
4:30 PM61 °FLight rain. Broken clouds.7 mph77%30.09 "HgN/A
4:00 PM63 °FBroken clouds.7 mph68%30.12 "HgN/A
3:30 PM63 °FBroken clouds.7 mph73%30.12 "HgN/A
3:00 PM63 °FBroken clouds.6 mph73%30.12 "HgN/A
2:30 PM63 °FBroken clouds.7 mph77%30.12 "HgN/A
2:00 PM61 °FBroken clouds.8 mph83%30.12 "HgN/A
1:30 PM61 °FLight rain. Broken clouds.3 mph83%30.15 "HgN/A
1:00 PM61 °FBroken clouds.7 mph83%30.15 "HgN/A
12:30 PM61 °FBroken clouds.5 mph83%30.15 "HgN/A
12:00 PM61 °FBroken clouds.3 mph83%30.15 "HgN/A
11:30 AM61 °FPartly sunny.3 mph83%30.15 "HgN/A
11:00 AM59 °FPartly sunny.2 mph88%30.15 "HgN/A
10:30 AM59 °FPartly sunny.5 mph88%30.15 "HgN/A
10:00 AM59 °FPartly sunny.2 mph94%30.15 "HgN/A
9:30 AM57 °FPartly sunny.3 mph100%30.15 "HgN/A
9:00 AM55 °FFog.No wind100%30.15 "Hg5 mi
8:30 AM55 °FFog.2 mph94%30.12 "Hg5 mi
8:00 AM55 °FFog.3 mph94%30.12 "Hg5 mi
7:30 AM55 °FFog.3 mph94%30.12 "Hg4 mi
7:00 AM55 °FFog.3 mph94%30.12 "Hg4 mi
5:00 AM55 °FClear.5 mph94%30.12 "Hg10 mi
4:30 AM55 °FClear.6 mph94%30.15 "Hg10 mi
4:00 AM57 °FClear.6 mph94%30.15 "Hg10 mi
Weather by CustomWeather, © 2014

See weather overviewHow to use our weather pages